Dewpoint
49 50 50 50 50 50 50 50 50 50 49 46 43 39 30 30 21 30 34 36 26 19 22 26 28 21 24 28 25 28 26 22 24 24 25 21 23 22 22 22 21 19 21 21 19 20 13 18 15 19 18 17 19 20 25 25 23 23 16 19 21 27 6 -1 5 12 14 15 17 13 14 16 12 12 12 9 2 1 0 -2 -0 1 -1 -3 -8 -11 -3
49 49 50 50 50 49 50 50 51 50 48 43 42 25 25 26 25 26 32 35 32 19 19 19 18 22 24 25 24 27 27 26 25 24 24 22 19 22 23 23 23 19 23 20 18 20 7 16 18 14 18 14 23 25 24 23 21 18 11 10 18 4 4 1 -2 -2 2 5 10 11 13 16 8 9 12 11 9 8 6 6 5 1 -3 -5 -9 -10 -6
49 49 50 50 50 49 49 50 50 50 49 44 42 28 28 24 29 26 25 29 28 21 25 22 22 23 23 24 21 22 23 26 26 25 23 25 22 20 18 21 23 21 22 20 21 20 16 14 13 14 15 16 26 25 22 24 20 26 27 25 23 15 12 -1 -13 -13 -15 -15 -11 -4 2 5 7 13 13 12 5 6 -0 -0 3 0 1 -5 -10 -7 -3
50 50 50 50 49 49 49 49 50 50 49 45 43 39 29 28 14 23 20 25 26 26 27 26 24 23 18 20 21 23 22 24 26 26 23 25 24 22 21 23 23 22 21 19 19 17 20 12 11 12 15 16 21 26 23 23 20 29 32 28 22 14 14 2 1 -5 -11 -2 -1 7 15 8 -1 3 9 7 9 7 2 -1 2 1 -5 -6 -3 -3 -3
50 50 49 49 48 49 49 50 50 50 47 45 42 34 29 27 24 23 15 22 23 25 27 25 25 21 24 18 19 16 21 22 21 25 17 22 24 23 23 23 21 20 20 18 19 20 20 18 13 11 10 12 16 24 23 23 25 31 29 27 13 10 8 8 6 4 2 -0 -1 2 14 6 5 2 3 7 7 6 3 -2 -6 0 -5 -4 1 1 -4
50 50 49 48 47 48 49 49 50 50 48 46 37 24 27 21 21 26 24 24 15 25 22 26 24 24 24 19 23 21 22 22 18 24 24 25 23 22 22 24 24 23 22 22 12 19 18 15 7 15 12 15 16 15 24 23 28 26 17 15 3 -0 0 6 -1 -2 2 3 3 4 6 6 6 5 5 5 7 8 4 1 3 3 -5 -5 -6 -3 0
50 50 49 49 48 48 48 49 49 48 48 45 33 21 21 29 25 24 26 20 20 25 24 25 24 23 24 25 23 21 21 18 21 24 25 22 22 22 15 22 23 24 23 21 16 21 10 8 15 12 12 12 13 7 10 19 18 12 11 13 6 8 6 8 5 5 8 2 4 8 7 6 5 5 7 7 8 8 8 8 7 6 3 3 3 5 5
50 50 49 49 48 48 48 49 49 48 47 42 32 30 22 19 23 18 25 23 20 19 21 24 22 22 25 21 21 24 24 23 24 24 24 19 23 25 23 23 23 24 24 22 17 20 19 12 11 14 12 13 13 10 4 3 12 13 10 10 9 4 2 14 6 -1 1 2 10 8 6 4 3 4 6 7 8 8 9 8 9 10 10 9 9 8 7
49 49 48 48 49 48 48 48 48 49 48 29 32 27 32 29 29 23 20 20 19 22 22 23 23 21 22 22 24 25 23 21 24 25 26 25 25 26 24 26 24 24 24 24 24 25 23 21 19 20 17 10 16 9 9 7 4 9 7 5 6 -5 -2 4 1 -5 -2 2 7 7 6 5 2 3 3 4 7 5 7 5 7 6 5 6 2 0 1
48 47 46 48 48 46 46 47 47 49 48 30 32 26 27 32 31 32 24 20 21 20 21 23 24 19 22 25 24 25 23 25 25 23 26 26 26 26 25 25 24 22 23 22 25 25 25 22 20 17 21 17 13 12 10 9 7 2 7 7 4 1 1 2 -1 -5 -4 0 -4 -4 3 1 -1 2 3 4 6 7 7 6 8 9 6 0 -0 1 -2
47 47 47 47 47 45 46 47 47 48 43 29 27 25 34 29 25 29 27 21 21 24 21 22 22 24 25 26 24 25 25 25 25 16 16 26 26 26 26 25 22 23 23 24 27 26 26 23 19 17 14 11 10 11 14 17 12 7 4 7 8 7 4 2 0 -8 -4 1 1 1 -4 -8 -3 5 10 7 5 7 6 6 5 5 3 2 -0 -2 -1
47 47 47 46 46 47 46 46 47 46 44 40 37 37 37 36 37 29 25 23 18 23 23 21 23 25 24 25 25 25 24 24 25 24 22 25 27 26 26 25 22 17 24 24 24 24 23 21 20 17 17 16 17 18 17 16 12 16 8 -3 2 3 4 3 -3 -4 -1 -0 -1 -5 -14 -4 3 7 8 8 7 6 6 5 5 4 4 4 4 4 3
46 46 47 47 46 47 47 46 46 45 42 36 33 31 36 32 35 28 26 24 19 20 19 19 20 24 24 25 25 24 25 25 26 27 25 26 26 26 28 27 24 25 26 24 24 22 19 15 17 16 16 19 19 20 19 19 19 16 3 5 1 -3 -2 -2 0 -1 -1 -4 -7 -16 -9 -1 9 7 8 10 8 7 3 3 4 5 5 4 3 3 4
46 46 45 47 47 47 47 48 46 44 43 38 35 33 32 35 30 28 25 24 22 19 19 21 20 22 23 23 23 23 22 22 22 24 23 26 26 26 27 29 28 28 28 26 24 19 15 15 10 10 10 14 11 10 16 20 20 16 9 6 2 -3 -2 -1 -2 -2 -9 -6 -8 -4 -4 -5 -1 5 8 8 4 5 -0 -5 -2 1 3 4 3 3 2
47 46 45 45 46 47 47 46 47 45 41 40 35 35 36 36 36 33 26 24 23 19 21 22 22 23 23 23 23 20 17 19 20 20 25 26 26 27 27 27 27 26 25 22 20 19 13 12 4 4 4 2 -4 -6 17 11 12 18 13 8 3 -3 -7 -1 -3 -6 -0 -6 -3 -4 -9 -14 -4 3 7 4 4 3 3 -0 0 -2 1 1 1 1 3
47 47 46 46 47 45 45 46 46 46 45 39 33 34 35 36 34 32 25 23 23 18 20 26 26 24 23 23 24 20 17 19 16 20 21 23 25 26 26 26 26 26 25 23 19 13 9 2 0 0 -2 -2 3 1 -1 4 4 9 8 8 7 6 -5 -3 -5 -3 -2 -6 -9 -11 -13 -7 -4 4 6 5 3 3 3 -1 -2 3 4 4 4 3 3
47 47 44 44 44 44 45 45 44 44 44 44 32 32 32 36 36 29 23 24 27 22 26 26 28 26 21 20 21 20 23 16 19 16 15 17 24 25 25 26 25 26 25 21 17 12 11 9 5 1 3 4 0 -3 1 3 -0 -3 7 6 5 3 2 0 -0 -4 -2 -6 -7 -6 -8 -4 -2 6 7 7 5 5 2 -6 -5 3 4 4 4 3 3
47 47 47 45 45 44 44 45 45 44 42 38 31 30 30 33 35 34 27 25 24 20 25 27 27 24 21 22 21 24 24 22 20 20 19 21 22 24 25 26 21 24 26 15 14 10 9 7 2 1 3 8 6 0 -3 -2 -4 -4 -4 2 -2 -1 1 2 1 -2 1 5 -3 -6 -0 5 7 8 6 5 5 0 -8 -8 -3 5 5 4 4 4 4
46 47 47 48 45 45 44 44 44 44 45 44 35 30 29 31 34 32 28 26 25 19 23 26 27 28 28 28 28 27 26 23 22 16 14 14 16 24 25 25 25 15 22 16 11 9 8 5 4 3 2 6 5 -1 3 -3 -3 -3 -0 -4 -2 -1 -2 1 -5 -5 -2 -1 -3 -2 -1 2 8 6 6 6 -2 -10 -7 2 6 5 5 5 4 4 4
45 45 45 46 46 45 45 45 44 43 41 40 34 27 28 30 32 33 26 25 23 23 25 26 28 27 29 27 23 22 23 23 23 21 15 14 18 22 17 14 20 20 16 14 9 11 6 5 6 6 4 4 9 4 1 2 0 -3 -4 -4 -2 0 -6 -3 -4 -1 -3 -6 -10 -6 -9 -2 6 5 5 6 -3 1 1 3 4 4 3 3 3 4 4
44 44 44 44 44 45 45 45 45 45 43 43 36 26 25 29 30 30 29 27 24 21 18 24 27 27 27 27 27 27 26 22 23 20 21 19 22 19 12 9 17 15 12 8 6 8 5 6 6 4 9 5 4 2 2 -1 3 8 2 3 0 3 -6 -4 -1 1 -7 -7 -11 -8 -0 3 5 -1 -3 4 1 -0 4 1 0 4 4 3 4 4 5
43 43 43 43 44 43 44 44 44 44 44 42 38 26 24 28 31 30 30 29 26 24 24 26 27 26 28 28 28 28 27 27 28 27 23 17 21 22 19 16 17 16 16 15 11 9 12 9 8 5 2 6 7 5 3 1 2 5 10 3 1 3 3 5 -2 1 -2 -4 -0 -0 -0 6 5 1 -4 -3 2 4 3 3 2 2 3 4 5 5 6
47 47 48 46 45 44 44 43 43 42 42 40 35 27 26 27 29 29 25 25 27 29 28 27 27 29 32 32 31 29 28 29 29 27 26 23 17 19 19 18 18 24 22 16 14 15 14 10 9 9 6 8 7 4 3 8 2 -1 1 3 8 9 3 2 -2 5 5 4 3 4 2 2 5 6 3 1 -0 2 4 4 3 4 5 6 5 6 6
46 46 45 44 44 44 43 44 44 44 42 41 35 29 31 32 33 31 28 29 27 24 23 27 23 19 25 26 29 29 28 28 29 28 28 28 19 16 21 25 25 23 22 23 20 12 13 11 11 7 1 8 2 2 -0 2 4 8 3 7 3 3 -0 -0 -1 4 -3 -1 -2 -3 -3 -3 -1 0 3 4 4 2 4 5 5 4 5 5 6 6 6
43 43 43 43 43 43 43 42 42 42 43 43 39 38 34 31 32 32 27 22 22 24 15 15 20 24 28 28 28 27 28 29 30 29 28 26 26 23 19 24 26 22 21 22 15 14 13 9 10 8 2 10 4 4 8 1 6 4 1 8 4 8 1 -0 -0 -0 -2 -2 -2 -2 -2 -2 -0 -1 -3 -3 -2 2 4 4 5 5 6 6 6 7 6
43 42 42 42 42 42 42 42 42 41 40 39 38 30 29 28 31 34 34 28 26 24 18 15 20 28 27 28 28 29 30 28 28 28 28 28 27 26 26 27 25 25 22 19 17 14 15 13 11 9 7 12 6 3 3 4 2 3 2 6 3 5 4 2 1 -1 -1 -0 -0 -0 0 -0 -0 -0 -1 -1 -1 -0 4 6 5 5 6 6 6 6 6
42 43 43 43 45 45 44 42 43 43 41 38 33 31 31 30 33 35 31 30 25 13 24 18 19 25 28 27 29 28 30 27 27 27 28 28 28 27 26 25 24 21 18 14 15 12 12 10 8 10 9 12 4 4 6 8 5 4 4 5 4 3 4 2 0 3 3 2 1 -0 -1 0 -2 -4 -2 -1 1 1 3 5 5 5 5 6 6 5 4
42 43 43 43 43 44 45 44 44 43 42 40 36 34 33 31 33 33 33 34 27 20 21 17 14 18 25 28 30 27 28 27 26 26 24 26 27 26 25 25 24 19 16 13 13 11 9 8 12 10 7 7 4 7 6 5 5 4 7 6 4 1 2 2 3 2 1 1 1 2 1 -0 -2 -4 -5 -0 3 3 4 5 5 6 6 6 6 6 4
45 46 45 45 44 44 44 44 45 44 44 41 36 36 34 33 32 34 36 34 30 26 25 21 21 19 14 21 28 27 28 27 26 26 25 25 26 25 25 24 23 19 16 15 14 13 11 13 13 8 8 12 4 6 4 3 4 4 4 5 4 3 2 2 2 2 2 2 2 1 -3 -3 -2 -1 3 3 5 4 4 5 5 6 6 6 6 6 5
44 44 44 44 43 44 43 45 45 45 43 36 35 29 28 28 34 33 35 35 29 27 24 18 14 15 24 26 25 27 27 28 27 26 26 24 24 23 24 23 22 23 16 13 13 11 16 12 11 11 12 14 6 8 6 5 5 6 6 6 5 4 4 4 3 2 2 3 2 0 -1 -2 -1 1 5 5 6 6 5 5 6 6 6 7 6 5 4
43 43 43 43 43 42 42 40 41 44 41 35 30 23 24 15 18 34 35 34 33 28 25 26 15 16 15 21 25 26 27 26 25 24 25 25 24 23 20 20 18 21 14 14 11 14 13 9 11 13 14 15 16 10 6 6 6 8 9 8 7 6 5 5 5 5 4 4 4 3 4 4 5 6 5 6 6 7 6 6 7 9 7 5 4 4 3
43 43 43 43 42 42 42 41 37 33 27 28 23 19 21 17 23 34 36 37 33 27 27 19 13 14 14 22 23 24 26 26 26 26 24 26 20 22 18 19 16 20 25 14 16 12 10 15 11 10 8 20 14 8 8 7 6 9 8 7 8 8 7 5 5 5 5 5 4 4 3 3 3 3 2 4 6 7 6 6 6 6 7 6 4 2 2
45 45 44 44 44 42 42 40 37 30 22 33 40 42 40 41 39 37 37 32 24 20 23 23 9 10 13 14 18 21 24 22 20 19 17 23 18 20 17 21 20 19 32 19 13 9 13 12 12 10 14 14 9 9 6 8 9 9 8 10 8 8 8 8 8 7 6 5 4 4 4 3 3 4 5 6 6 6 6 6 5 3 2 3 2 2 2
45 45 45 44 44 43 41 42 39 40 40 32 19 21 30 40 38 39 36 27 20 21 23 18 9 10 11 15 10 18 22 14 12 17 12 20 18 16 14 19 18 14 18 17 17 13 12 13 8 8 10 8 9 6 5 8 10 10 9 9 9 9 9 9 9 8 8 6 5 4 4 4 7 6 5 5 5 5 5 5 4 3 3 2 2 3 2
45 43 43 44 44 44 45 42 35 33 26 29 28 29 30 39 39 41 35 26 16 13 15 12 18 13 11 14 14 17 19 15 11 14 10 14 16 12 16 13 14 10 15 13 11 10 9 10 14 9 8 6 6 5 9 9 9 10 10 10 9 8 8 7 7 7 7 7 7 7 7 6 6 6 6 6 6 6 5 5 5 6 4 4 4 3 2
43 44 43 43 44 41 34 35 33 31 26 24 27 36 41 39 40 33 34 32 21 15 16 9 15 10 9 5 8 13 19 15 15 12 11 12 15 14 14 12 9 15 16 10 8 12 8 13 10 7 8 5 8 10 9 11 10 10 9 9 8 7 8 7 7 7 6 6 6 7 6 6 6 7 7 8 8 7 7 6 5 5 5 6 6 5 4
43 42 43 39 36 31 26 22 30 29 24 30 37 39 38 39 34 31 29 24 24 24 20 14 14 11 14 14 14 15 15 12 15 13 12 10 11 14 11 12 11 18 14 13 12 11 12 13 7 4 5 8 10 12 11 11 10 9 8 8 9 8 8 8 8 7 6 6 6 7 7 7 8 8 8 8 8 9 7 6 6 6 6 6 6 5 5
42 40 33 30 25 22 19 23 24 30 38 38 38 29 24 27 18 20 24 20 15 28 17 22 15 14 13 8 7 16 14 14 14 11 12 10 15 11 10 10 11 16 6 7 10 14 9 7 7 6 8 11 11 11 10 10 9 9 9 9 9 9 9 9 8 6 6 6 5 4 5 7 8 8 8 8 9 9 9 9 9 8 8 8 7 7 5
37 32 30 27 23 19 20 23 34 37 36 34 30 22 20 18 18 13 11 15 16 14 15 16 14 14 12 10 15 23 14 9 9 10 9 13 10 9 9 5 8 9 3 3 5 7 2 3 5 4 8 10 8 8 9 10 11 11 11 11 11 10 10 9 9 7 7 6 4 3 2 3 5 6 8 9 9 10 10 10 9 8 8 8 7 6 5
31 24 23 23 21 23 32 33 38 32 31 23 21 20 7 15 13 6 15 8 11 14 15 12 14 13 13 12 9 10 21 12 9 9 10 12 22 8 9 9 8 4 0 1 6 7 1 -1 -0 1 6 9 8 7 7 7 7 8 8 8 8 8 7 8 8 8 8 7 8 7 8 8 9 8 7 8 9 9 9 8 9 8 7 7 6 6 5
28 27 25 22 27 29 30 31 29 23 20 16 12 8 8 1 10 10 13 9 9 10 14 14 12 11 14 12 10 9 18 17 13 11 9 8 15 16 10 5 7 1 -2 -1 6 4 3 1 -0 2 7 10 11 11 11 8 7 8 7 7 7 7 7 8 9 9 9 9 9 10 11 11 11 10 9 9 10 10 9 8 7 7 7 6 5 5 5
32 25 26 30 32 31 27 25 19 14 9 14 2 -2 6 1 11 13 11 0 4 12 12 12 9 11 13 13 13 12 12 12 12 12 9 6 18 8 6 4 2 -1 -2 1 4 3 1 -2 -3 3 10 9 8 9 10 10 10 9 7 6 6 6 8 9 9 10 11 11 11 11 11 11 11 11 11 11 10 10 9 8 7 6 7 7 6 4 4
37 34 33 27 26 24 21 16 18 10 -0 -0 -3 -7 2 1 4 -1 2 12 13 10 12 14 15 20 16 14 12 13 12 23 18 11 8 6 17 9 -0 -1 -3 -3 2 3 2 -0 -2 -2 -2 6 7 7 9 10 10 8 7 7 7 7 7 7 8 9 10 11 12 12 13 13 14 12 12 13 11 11 8 6 6 6 7 8 7 6 6 5 4
30 29 22 23 17 14 13 -2 9 -0 -3 6 -2 -9 -2 0 17 6 1 11 12 9 13 7 11 13 10 13 10 14 15 19 24 10 10 6 2 -2 -3 -4 -2 5 3 0 -1 -3 2 2 6 9 8 8 8 9 10 10 10 8 7 6 5 6 8 10 11 11 12 12 11 12 11 11 11 9 7 8 8 8 7 6 6 6 6 6 5 5 4
21 20 18 9 5 13 2 -6 5 -4 -8 -4 9 4 4 -4 12 11 11 17 12 16 13 14 13 10 10 11 11 13 19 10 19 8 4 3 0 -0 -2 1 1 1 -2 -3 -3 -2 -2 3 9 10 9 9 9 10 10 9 8 5 4 5 6 5 6 8 9 11 10 11 11 12 11 12 11 11 10 9 8 8 7 7 6 5 6 5 5 4 3
20 15 12 2 -1 4 3 -5 3 -4 6 13 9 17 14 19 14 15 17 13 14 12 12 11 12 13 10 10 8 9 8 8 7 5 4 1 0 0 3 4 1 -3 -6 -4 -6 -1 3 10 11 11 12 13 13 11 7 6 7 7 8 10 9 7 6 6 8 10 10 10 11 11 12 11 11 11 11 11 9 6 6 6 4 5 5 4 4 3 3
17 18 16 8 2 6 4 -2 3 12 10 16 19 22 21 19 19 17 14 13 14 14 12 12 13 12 13 10 8 8 7 7 4 4 3 0 -1 1 3 -1 -3 -5 -5 -5 -3 1 6 10 10 11 13 13 12 13 14 14 15 14 13 12 11 10 9 8 9 9 9 10 11 11 11 11 11 11 10 9 9 8 6 4 4 4 4 4 5 4 3
10 15 13 3 0 6 2 10 14 16 16 14 15 12 12 11 8 11 11 11 14 13 11 8 8 10 11 11 9 8 7 5 3 4 3 1 2 -2 -5 -7 -7 -5 -3 -2 5 10 12 13 15 15 16 16 16 17 17 17 17 16 16 15 14 14 13 12 12 11 11 11 11 12 12 11 11 10 10 10 9 8 7 5 4 3 4 3 2 3 2
19 9 7 5 11 10 13 18 10 9 19 12 10 11 11 9 11 15 12 11 12 11 12 11 11 9 8 8 5 4 1 4 1 1 -1 -2 -2 -4 -4 -3 -4 -1 6 6 9 10 10 11 16 18 19 20 21 19 18 17 17 17 17 17 16 16 15 14 14 13 12 12 12 12 12 12 11 10 9 8 8 8 7 6 4 3 3 3 2 2 2
11 10 12 10 6 18 15 14 9 10 18 16 14 13 13 12 12 14 11 12 10 9 11 12 14 11 7 2 1 -2 -0 3 2 -1 -2 -3 -4 -4 -4 -4 -0 2 8 9 11 11 14 19 21 22 23 22 21 19 18 18 18 20 20 19 19 18 17 15 14 14 13 13 12 12 12 11 10 9 9 9 8 5 5 6 5 4 3 2 2 1 0
16 12 15 22 12 22 13 4 8 12 16 16 16 17 15 12 14 14 13 10 11 11 10 8 7 4 2 -0 -2 -1 -1 2 -0 -1 1 -0 1 -4 -3 0 6 11 10 13 16 18 22 23 22 21 22 22 20 20 21 20 20 21 20 19 18 17 16 14 13 12 12 12 11 8 11 11 11 10 9 6 4 3 2 2 3 4 4 3 2 2 1
11 8 11 19 17 17 19 17 15 17 18 16 15 15 15 12 15 14 13 15 11 10 9 8 5 2 -1 1 2 3 -0 1 -1 -2 -3 2 1 -0 1 5 10 10 14 16 18 20 20 22 23 22 23 22 22 22 22 20 19 19 18 18 18 16 14 14 13 11 10 10 10 9 10 9 6 4 3 4 2 1 4 5 5 4 3 3 3 2 2